Regional Weather Roundup
Issued by NWS

Home | Current Version | Previous Version | Text Only | Print | Product List | Glossary Off
Versions: 1 2 3 4 5 6 7 8 9 10 11 12 13 14 15 16 17 18 19 20 21 22 23 24 25 26 27 28 29 30 31 32 33 34 35 36 37 38 39 40 41 42 43 44 45 46 47 48

000
ASUS45 KBOU 222107
RWRCO

WEATHER ROUNDUP FOR COLORADO
NATIONAL WEATHER SERVICE DENVER/BOULDER CO
300 PM MDT MON SEP 22 2014

NOTE: "FAIR" INDICATES FEW OR NO CLOUDS BELOW 12000 FEET WITH NO
SIGNIFICANT WEATHER AND/OR OBSTRUCTIONS TO VISIBILITY.

COZ001>005-013-030-031-222200-
...NORTHWEST COLORADO...

CITY           SKY/WX    TMP DP  RH WIND       PRES   REMARKS
CRAIG          PTSUNNY   68  48  48 NW7       30.21F
HAYDEN         MOSUNNY   66  46  48 W9        30.23F
MEEKER         MOSUNNY   67  47  48 SW8       30.24S
MOUNT WERNER   NOT AVBL
STEAMBOAT SPGS MOSUNNY   64  47  54 SW6       30.25F
WALDEN         MOSUNNY   64  36  34 SW18G25   30.30F
$$

COZ006>008-011-222200-
...WEST CENTRAL VALLEYS...

CITY           SKY/WX    TMP DP  RH WIND       PRES   REMARKS
GRAND JUNCTION SUNNY     74  55  51 VRB6      30.15F
MONTROSE       MOSUNNY   73  55  53 N10       30.22F
EAGLE          PTSUNNY   63  54  72 VRB6      30.29F
RIFLE          MOSUNNY   70  53  54 SW5       30.20F
DELTA          MOSUNNY   78  49  36 W13G18    30.18F HAZE
NUCLA          PTSUNNY   72  46  40 NW13      30.26F
$$

COZ017>023-064>068-222200-
...SOUTHWEST COLORADO...

CITY           SKY/WX    TMP DP  RH WIND       PRES   REMARKS
DURANGO        PTSUNNY   71  55  56 SW9       30.29F
CORTEZ         MOSUNNY   78  53  41 SW13      30.25F
PAGOSA SPRINGS PTSUNNY   66  51  57 W3        30.36F
TELLURIDE      NOT AVBL
WOLF CREEK PAS CLOUDY    43  43 100 SW24G37   30.59S
$$

COZ009-010-012-014-032>034-037-058>063-222200-
...CENTRAL COLORADO...

CITY           SKY/WX    TMP DP  RH WIND       PRES   REMARKS
ASPEN          LGT RAIN  58  47  66 N12G18    30.35R
BUENA VISTA    CLOUDY    66  39  37 N5G20     30.30F THUNDER
COPPER MTN     CLOUDY    46  39  76 W18       30.56F
BERTHOUD PASS  CLOUDY    37  36  93 NW18G24   30.58F
COTTONWOOD PAS MOSUNNY   63  37  39 W13G25    30.41F THUNDER
GUNNISON       PTSUNNY   59  46  63 S7        30.35F
KREMMLING      CLOUDY    63  43  48 SE5       30.31F
LEADVILLE      CLOUDY    57  38  48 NW9G17    30.40F
MONARCH PASS   FOG       41  41 100 W37       30.66F VSB<1/4
SALIDA         MOSUNNY   72  45  37 SW14G26   30.35S
SUNLIGHT       PTSUNNY   52  52 100 CALM      30.51F THUNDER FOG
WILKERSON PASS NOT AVBL
$$

COZ069>075-222200-
...SAN LUIS VALLEY/SANGRE DE CRISTO MOUNTAINS...

CITY           SKY/WX    TMP DP  RH WIND       PRES   REMARKS
ALAMOSA        LGT RAIN  71  43  36 SW12      30.29F
LA VETA PASS   PTSUNNY   61  46  59 S9G18     30.46F
SAGUACHE       PTSUNNY   64  52  63 NW7       30.33F
$$

COZ035-036-038>040-222200-
...NORTHERN COLORADO FRONT RANGE...

CITY           SKY/WX    TMP DP  RH WIND       PRES   REMARKS
DENVER INTL AP PTSUNNY   77  52  41 N16       30.13S
DMNS CITY PARK   N/A     73  46  37 NW7G23    30.12F
AURORA         LGT RAIN  73  54  52 N17G23    30.15R
FRONT RANGE AP NOT AVBL
ERIE MUNI ARPT NOT AVBL
BOULDER MUN AP PTSUNNY   72  43  35 NW6       30.13F
CENTENNIAL     PTSUNNY   76  49  38 N8        30.14F
BROOMFIELD     LGT RAIN  70  48  46 NW15G28   30.17S
FORT COLLINS   PTSUNNY   72  52  49 CALM      30.13F
LONGMONT       PTSUNNY   75  43  31 W9        30.13F
$$

COZ041-046-047-076>085-087-088-222200-
...PIKES PEAK/PALMER DIVIDE AND SOUTHERN FOOTHILLS...

CITY           SKY/WX    TMP DP  RH WIND       PRES   REMARKS
COLO. SPRINGS  LGT RAIN  68  51  54 SE7       30.20F
A. F. ACADEMY  PTSUNNY   68  54  60 S13G20    30.19F
ELLICOTT       NOT AVBL
FALCON         PTSUNNY   66  50  56 S10       30.24F
FORT CARSON    PTSUNNY   71  53  51 NE7       30.17F
LIMON          PTSUNNY   76  50  40 S16       30.13F
MONUMENT HILL  PTSUNNY   72  46  40 S10G17    30.21F
TRINIDAD       PTSUNNY   72  55  55 S20G32    30.18F
$$

COZ042>045-048>051-090-091-222200-
...NORTHEAST COLORADO...

CITY           SKY/WX    TMP DP  RH WIND       PRES   REMARKS
GREELEY ARPT   PTSUNNY   77  52  41 CALM      30.11F
AKRON          PTSUNNY   75  56  51 S12G23    30.11F
BURLINGTON     CLOUDY    75  51  43 S25G35    30.14F
WRAY           CLOUDY    80  52  38 S17G26    30.10F
STERLING       PTSUNNY   81  61  50 S16       30.06F
HOLYOKE        CLOUDY    73  55  53 S18G25    30.11F
FORT MORGAN    PTSUNNY   79  49  34 SW8       30.10F
$$

COZ086-089-092>099-222200-
...SOUTHEAST COLORADO...

CITY           SKY/WX    TMP DP  RH WIND       PRES   REMARKS
PUEBLO           N/A     76  52  43 SE5       30.10F
LA JUNTA       TSTM      70  61  73 SW14G21   30.11R VSB 3/4
LAMAR          PTSUNNY   78  57  48 S25G37    30.10F
SPRINGFIELD      N/A     75  57  53 S24G32    30.19F
$$


USA.gov is the U.S. government's official web portal to all federal, state and local government web resources and services.